| time (UTC) | temp F | wind direction | speed MPH | gust MPH | rain 1hr in | rain 24hr in | rain mn in | humidity % | barometer mb |
| 20260506004343 | 49 | 69 | 6.0 | 17.0 | 0.00 | 0.00 | 0.00 | 83 | 1009.3 |
| 20260506003906 | 50 | 45 | 10.0 | 17.0 | 0.00 | 0.00 | 0.00 | 82 | 1009.1 |
| 20260506003835 | 50 | 356 | 6.0 | 17.0 | 0.00 | 0.00 | 0.00 | 82 | 1009.1 |
| 20260506003405 | 50 | 16 | 3.0 | 17.0 | 0.00 | 0.00 | 0.00 | 82 | 1009.0 |
| 20260506003357 | 50 | 54 | 5.0 | 17.0 | 0.00 | 0.00 | 0.00 | 80 | 1009.1 |
| 20260506003347 | 50 | 69 | 5.0 | 18.0 | 0.00 | 0.00 | 0.00 | 80 | 1009.1 |
| 20260506003336 | 50 | 83 | 8.0 | 17.0 | 0.00 | 0.00 | 0.00 | 82 | 1009.0 |
| 20260506003121 | 50 | 58 | 10.0 | 17.0 | 0.00 | 0.00 | 0.00 | 80 | 1009.1 |
| 20260506002341 | 50 | 41 | 5.0 | 18.0 | 0.00 | 0.00 | 0.00 | 80 | 1009.1 |
| 20260506001905 | 50 | 62 | 9.0 | 20.0 | 0.00 | 0.00 | 0.00 | 79 | 1009.1 |
| 20260506001834 | 50 | 58 | 13.0 | 20.0 | 0.00 | 0.00 | 0.00 | 79 | 1009.1 |
| 20260506001405 | 51 | 77 | 5.0 | 20.0 | 0.00 | 0.00 | 0.00 | 78 | 1009.1 |
| 20260506001334 | 51 | 50 | 6.0 | 20.0 | 0.00 | 0.00 | 0.00 | 78 | 1009.1 |
| 20260506001154 | 51 | 40 | 11.0 | 20.0 | 0.00 | 0.00 | 0.00 | 78 | 1009.0 |
| 20260506001136 | 51 | 88 | 8.0 | 22.0 | 0.00 | 0.00 | 0.00 | 78 | 1008.9 |
| 20260506001024 | 51 | 69 | 10.0 | 21.0 | 0.00 | 0.00 | 0.00 | 78 | 1009.1 |
| 20260506001006 | 51 | 56 | 8.0 | 22.0 | 0.00 | 0.00 | 0.00 | 78 | 1009.1 |
| 20260506000541 | 51 | 38 | 12.0 | 22.0 | 0.00 | 0.00 | 0.00 | 78 | 1008.9 |
| 20260506000309 | 51 | 58 | 11.0 | 17.0 | 0.00 | 0.00 | 0.00 | 78 | 1008.8 |
| 20260506000114 | 51 | 56 | 20.0 | 21.0 | 0.00 | 0.00 | 0.00 | 77 | 1009.0 |
| 20260505235336 | 51 | 103 | 6.0 | 17.0 | 0.00 | 0.00 | 0.00 | 78 | 1008.8 |
| 20260505234905 | 51 | 40 | 5.0 | 17.0 | 0.00 | 0.00 | 0.00 | 78 | 1008.5 |
| 20260505234835 | 51 | 41 | 7.0 | 17.0 | 0.00 | 0.00 | 0.00 | 78 | 1008.5 |
| 20260505234404 | 51 | 55 | 7.0 | 17.0 | 0.00 | 0.00 | 0.00 | 78 | 1009.0 |
| 20260505234336 | 51 | 81 | 5.0 | 17.0 | 0.00 | 0.00 | 0.00 | 78 | 1009.0 |
| 20260505233905 | 51 | 52 | 11.0 | 19.0 | 0.00 | 0.00 | 0.00 | 78 | 1008.6 |
| 20260505233834 | 51 | 44 | 10.0 | 19.0 | 0.00 | 0.00 | 0.00 | 78 | 1008.6 |
| 20260505233720 | 51 | 51 | 9.0 | 18.0 | 0.00 | 0.00 | 0.00 | 78 | 1009.0 |
| 20260505233552 | 51 | 28 | 15.0 | 19.0 | 0.00 | 0.00 | 0.00 | 77 | 1009.1 |
| 20260505233535 | 51 | 15 | 4.0 | 19.0 | 0.00 | 0.00 | 0.00 | 78 | 1009.1 |
| 20260505232847 | 51 | 68 | 5.0 | 19.0 | 0.00 | 0.00 | 0.00 | 78 | 1009.3 |
| 20260505232836 | 51 | 77 | 14.0 | 18.0 | 0.00 | 0.00 | 0.00 | 78 | 1009.0 |
| 20260505232635 | 51 | 80 | 6.0 | 18.0 | 0.00 | 0.00 | 0.00 | 78 | 1009.3 |
| 20260505232245 | 52 | 47 | 6.0 | 19.0 | 0.00 | 0.00 | 0.00 | 78 | 1009.2 |
| 20260505232103 | 52 | 29 | 10.0 | 19.0 | 0.00 | 0.00 | 0.00 | 78 | 1009.2 |
| 20260505231405 | 52 | 70 | 7.0 | 19.0 | 0.00 | 0.00 | 0.00 | 78 | 1008.9 |
| 20260505231334 | 52 | 49 | 16.0 | 19.0 | 0.00 | 0.00 | 0.00 | 78 | 1008.9 |
| 20260505230910 | 52 | 108 | 7.0 | 17.0 | 0.00 | 0.00 | 0.00 | 78 | 1009.0 |
| 20260505230835 | 52 | 87 | 4.0 | 17.0 | 0.00 | 0.00 | 0.00 | 78 | 1009.0 |
| 20260505230808 | 52 | 58 | 7.0 | 20.0 | 0.00 | 0.00 | 0.00 | 78 | 1008.7 |
| 20260505230349 | 52 | 64 | 7.0 | 20.0 | 0.00 | 0.00 | 0.00 | 78 | 1008.7 |
| 20260505225907 | 52 | 59 | 11.0 | 20.0 | 0.00 | 0.00 | 0.00 | 78 | 1008.8 |
| 20260505225837 | 52 | 62 | 6.0 | 20.0 | 0.00 | 0.00 | 0.00 | 78 | 1008.8 |
| 20260505225405 | 52 | 40 | 5.0 | 16.0 | 0.00 | 0.00 | 0.00 | 79 | 1008.6 |
| 20260505225334 | 52 | 62 | 4.0 | 16.0 | 0.00 | 0.00 | 0.00 | 79 | 1008.6 |
| 20260505224910 | 52 | 71 | 10.0 | 17.0 | 0.00 | 0.00 | 0.00 | 78 | 1008.7 |
| 20260505224840 | 52 | 83 | 4.0 | 17.0 | 0.00 | 0.00 | 0.00 | 79 | 1008.7 |
| 20260505224414 | 52 | 51 | 7.0 | 25.0 | 0.00 | 0.00 | 0.00 | 78 | 1009.0 |
| 20260505224334 | 52 | 102 | 8.0 | 25.0 | 0.00 | 0.00 | 0.00 | 78 | 1009.0 |
| 20260505223903 | 52 | 73 | 5.0 | 25.0 | 0.00 | 0.00 | 0.00 | 79 | 1008.4 |
| 20260505223834 | 52 | 37 | 9.0 | 25.0 | 0.00 | 0.00 | 0.00 | 79 | 1008.4 |
| 20260505223754 | 52 | 74 | 13.0 | 23.0 | 0.00 | 0.00 | 0.00 | 78 | 1008.4 |
| 20260505223339 | 52 | 77 | 7.0 | 23.0 | 0.00 | 0.00 | 0.00 | 79 | 1008.4 |
| 20260505223247 | 52 | 32 | 10.0 | 23.0 | 0.00 | 0.00 | 0.00 | 79 | 1008.4 |
| 20260505222843 | 52 | 60 | 15.0 | 23.0 | 0.00 | 0.00 | 0.00 | 79 | 1008.4 |
| 20260505222402 | 52 | 51 | 9.0 | 19.0 | 0.00 | 0.00 | 0.00 | 78 | 1008.5 |
| 20260505222340 | 52 | 51 | 8.0 | 19.0 | 0.00 | 0.00 | 0.00 | 79 | 1008.5 |
| 20260505222107 | 53 | 23 | 9.0 | 19.0 | 0.00 | 0.00 | 0.00 | 78 | 1008.5 |
| 20260505222055 | 53 | 22 | 9.0 | 15.0 | 0.00 | 0.00 | 0.00 | 78 | 1008.3 |
| 20260505222051 | 53 | 71 | 6.0 | 15.0 | 0.00 | 0.00 | 0.00 | 79 | 1008.3 |
| 20260505222000 | 52 | 89 | 7.0 | 19.0 | 0.00 | 0.00 | 0.00 | 79 | 1008.1 |
| 20260505221943 | 52 | 58 | 18.0 | 19.0 | 0.00 | 0.00 | 0.00 | 78 | 1008.1 |
| 20260505221514 | 53 | 58 | 8.0 | 19.0 | 0.00 | 0.00 | 0.00 | 78 | 1008.5 |
| 20260505220357 | 53 | 63 | 4.0 | 14.0 | 0.00 | 0.00 | 0.00 | 78 | 1007.8 |
| 20260505220338 | 53 | 111 | 5.0 | 19.0 | 0.00 | 0.00 | 0.00 | 79 | 1007.8 |
| 20260505220235 | 53 | 83 | 4.0 | 19.0 | 0.00 | 0.00 | 0.00 | 79 | 1007.8 |
| 20260505215837 | 53 | 89 | 4.0 | 19.0 | 0.00 | 0.00 | 0.00 | 79 | 1007.8 |
| 20260505215358 | 53 | 69 | 5.0 | 22.0 | 0.00 | 0.00 | 0.00 | 79 | 1007.6 |
| 20260505215336 | 53 | 45 | 15.0 | 22.0 | 0.00 | 0.00 | 0.00 | 79 | 1007.6 |
| 20260505215234 | 53 | 53 | 9.0 | 22.0 | 0.00 | 0.00 | 0.00 | 79 | 1007.9 |
| 20260505214837 | 53 | 95 | 4.0 | 22.0 | 0.00 | 0.00 | 0.00 | 79 | 1007.9 |
| 20260505214747 | 53 | 87 | 8.0 | 30.0 | 0.00 | 0.00 | 0.00 | 79 | 1007.9 |
| 20260505214338 | 53 | 77 | 5.0 | 30.0 | 0.00 | 0.00 | 0.00 | 79 | 1007.9 |
| 20260505214015 | 53 | 60 | 13.0 | 26.0 | 0.00 | 0.00 | 0.00 | 79 | 1008.2 |
| 20260505214008 | 53 | 51 | 7.0 | 21.0 | 0.00 | 0.00 | 0.00 | 79 | 1007.9 |
| 20260505213907 | 53 | 40 | 8.0 | 30.0 | 0.00 | 0.00 | 0.00 | 79 | 1007.8 |
| 20260505213855 | 53 | 70 | 9.0 | 30.0 | 0.00 | 0.00 | 0.00 | 79 | 1007.8 |
| 20260505213612 | 53 | 71 | 7.0 | 26.0 | 0.00 | 0.00 | 0.00 | 79 | 1008.2 |
| 20260505213059 | 53 | 58 | 9.0 | 21.0 | 0.00 | 0.00 | 0.00 | 79 | 1007.9 |
| 20260505212344 | 53 | 54 | 5.0 | 21.0 | 0.00 | 0.00 | 0.00 | 79 | 1007.6 |
| 20260505212323 | 54 | 82 | 14.0 | 21.0 | 0.00 | 0.00 | 0.00 | 78 | 1007.6 |
| 20260505212225 | 54 | 54 | 8.0 | 20.0 | 0.00 | 0.00 | 0.00 | 79 | 1007.0 |
| 20260505211823 | 54 | 20 | 6.0 | 20.0 | 0.00 | 0.00 | 0.00 | 78 | 1007.0 |
| 20260505211344 | 54 | 37 | 6.0 | 20.0 | 0.00 | 0.00 | 0.00 | 79 | 1007.4 |
| 20260505211323 | 54 | 74 | 5.0 | 20.0 | 0.00 | 0.00 | 0.00 | 79 | 1007.4 |
| 20260505211203 | 54 | 70 | 10.0 | 26.0 | 0.00 | 0.00 | 0.00 | 79 | 1006.9 |
| 20260505211044 | 54 | 126 | 7.0 | 26.0 | 0.00 | 0.00 | 0.00 | 79 | 1006.9 |
| 20260505210344 | 54 | 69 | 7.0 | 26.0 | 0.00 | 0.00 | 0.00 | 79 | 1006.9 |
| 20260505210324 | 54 | 55 | 13.0 | 26.0 | 0.00 | 0.00 | 0.00 | 79 | 1006.9 |
| 20260505205844 | 54 | 91 | 11.0 | 19.0 | 0.00 | 0.00 | 0.00 | 79 | 1007.2 |
| 20260505205823 | 54 | 57 | 9.0 | 19.0 | 0.00 | 0.00 | 0.00 | 80 | 1007.2 |
| 20260505205410 | 54 | 33 | 9.0 | 22.0 | 0.00 | 0.00 | 0.00 | 80 | 1007.2 |
| 20260505205323 | 54 | 68 | 11.0 | 22.0 | 0.00 | 0.00 | 0.00 | 80 | 1007.2 |
| 20260505204843 | 54 | 41 | 4.0 | 22.0 | 0.00 | 0.00 | 0.00 | 80 | 1007.4 |
| 20260505204823 | 54 | 54 | 5.0 | 22.0 | 0.00 | 0.00 | 0.00 | 80 | 1007.4 |
| 20260505204345 | 54 | 80 | 6.0 | 26.0 | 0.00 | 0.00 | 0.00 | 80 | 1007.4 |
| 20260505204324 | 54 | 110 | 5.0 | 26.0 | 0.00 | 0.00 | 0.00 | 81 | 1007.4 |
| 20260505203843 | 53 | 45 | 13.0 | 26.0 | 0.00 | 0.00 | 0.00 | 81 | 1007.3 |
| 20260505203825 | 53 | 40 | 6.0 | 26.0 | 0.00 | 0.00 | 0.00 | 82 | 1007.3 |
| 20260505203345 | 54 | 72 | 10.0 | 13.0 | 0.00 | 0.00 | 0.00 | 82 | 1007.5 |
| 20260505203323 | 54 | 108 | 3.0 | 21.0 | 0.00 | 0.00 | 0.00 | 83 | 1007.5 |
| 20260505203046 | 54 | 28 | 13.0 | 26.0 | 0.00 | 0.00 | 0.00 | 84 | 1007.2 |
| 20260505202950 | 53 | 53 | 4.0 | 21.0 | 0.00 | 0.00 | 0.00 | 83 | 1008.0 |
| 20260505202938 | 53 | 35 | 4.0 | 21.0 | 0.00 | 0.00 | 0.00 | 83 | 1008.0 |
| 20260505202638 | 53 | 73 | 8.0 | 20.0 | 0.00 | 0.00 | 0.00 | 84 | 1007.8 |
| 20260505202625 | 53 | 73 | 11.0 | 21.0 | 0.00 | 0.00 | 0.00 | 84 | 1007.6 |
| 20260505202513 | 53 | 31 | 8.0 | 21.0 | 0.00 | 0.00 | 0.00 | 83 | 1007.6 |
| 20260505202502 | 53 | 42 | 15.0 | 21.0 | 0.00 | 0.00 | 0.00 | 83 | 1007.6 |
| 20260505202017 | 53 | 70 | 8.0 | 21.0 | 0.00 | 0.00 | 0.00 | 84 | 1007.4 |
| 20260505201605 | 53 | 101 | 8.0 | 20.0 | 0.00 | 0.00 | 0.00 | 84 | 1007.6 |
| 20260505201000 | 53 | 70 | 7.0 | 21.0 | 0.00 | 0.00 | 0.00 | 84 | 1007.0 |
| 20260505200925 | 53 | 74 | 6.0 | 20.0 | 0.00 | 0.00 | 0.00 | 84 | 1007.3 |
| 20260505200911 | 53 | 62 | 6.0 | 20.0 | 0.00 | 0.00 | 0.00 | 84 | 1007.3 |
| 20260505200459 | 53 | 114 | 4.0 | 26.0 | 0.00 | 0.00 | 0.00 | 84 | 1007.1 |
| 20260505200045 | 54 | 54 | 10.0 | 26.0 | 0.00 | 0.00 | 0.00 | 84 | 1007.2 |
| 20260505195342 | 54 | 60 | 12.0 | 26.0 | 0.00 | 0.00 | 0.00 | 84 | 1007.0 |
| 20260505195322 | 54 | 74 | 26.0 | 26.0 | 0.00 | 0.00 | 0.00 | 84 | 1006.9 |
| 20260505194843 | 54 | 46 | 14.0 | 25.0 | 0.00 | 0.00 | 0.00 | 84 | 1006.6 |
| 20260505194823 | 54 | 34 | 2.0 | 25.0 | 0.00 | 0.00 | 0.00 | 84 | 1006.6 |
| 20260505194343 | 55 | 101 | 7.0 | 17.0 | 0.00 | 0.00 | 0.00 | 84 | 1007.0 |
| 20260505194322 | 55 | 61 | 6.0 | 17.0 | 0.00 | 0.00 | 0.00 | 84 | 1007.0 |
| 20260505193842 | 54 | 70 | 4.0 | 19.0 | 0.00 | 0.00 | 0.00 | 85 | 1007.1 |
| 20260505193824 | 54 | 89 | 4.0 | 19.0 | 0.00 | 0.00 | 0.00 | 85 | 1007.0 |
| 20260505193342 | 54 | 57 | 9.0 | 19.0 | 0.00 | 0.00 | 0.00 | 85 | 1007.0 |
| 20260505193322 | 54 | 50 | 13.0 | 19.0 | 0.00 | 0.00 | 0.00 | 85 | 1007.0 |
| 20260505192843 | 55 | 97 | 9.0 | 19.0 | 0.00 | 0.00 | 0.00 | 84 | 1007.1 |
| 20260505192824 | 55 | 51 | 5.0 | 19.0 | 0.00 | 0.00 | 0.00 | 84 | 1007.1 |
| 20260505192342 | 55 | 23 | 9.0 | 20.0 | 0.00 | 0.00 | 0.00 | 85 | 1007.0 |
| 20260505192323 | 55 | 60 | 8.0 | 20.0 | 0.00 | 0.00 | 0.00 | 84 | 1007.1 |
| 20260505191842 | 55 | 46 | 10.0 | 21.0 | 0.00 | 0.00 | 0.00 | 84 | 1006.9 |
| 20260505191824 | 55 | 6 | 6.0 | 21.0 | 0.00 | 0.00 | 0.00 | 84 | 1006.9 |
| 20260505191343 | 55 | 44 | 4.0 | 21.0 | 0.00 | 0.00 | 0.00 | 84 | 1006.7 |
| 20260505191323 | 55 | 57 | 8.0 | 21.0 | 0.00 | 0.00 | 0.00 | 84 | 1006.7 |
| 20260505191145 | 55 | 59 | 5.0 | 19.0 | 0.00 | 0.00 | 0.00 | 83 | 1006.4 |
| 20260505191020 | 55 | 40 | 6.0 | 21.0 | 0.00 | 0.00 | 0.00 | 84 | 1006.5 |
| 20260505191008 | 55 | 58 | 10.0 | 21.0 | 0.00 | 0.00 | 0.00 | 83 | 1006.4 |
| 20260505190539 | 55 | 75 | 11.0 | 19.0 | 0.00 | 0.00 | 0.00 | 83 | 1006.4 |
| 20260505185843 | 56 | 50 | 9.0 | 17.0 | 0.00 | 0.00 | 0.00 | 83 | 1006.7 |
| 20260505185822 | 56 | 20 | 11.0 | 17.0 | 0.00 | 0.00 | 0.00 | 83 | 1006.7 |
| 20260505185713 | 56 | 79 | 11.0 | 19.0 | 0.00 | 0.00 | 0.00 | 83 | 1006.3 |
| 20260505185546 | 56 | 83 | 9.0 | 19.0 | 0.00 | 0.00 | 0.00 | 83 | 1006.5 |
| 20260505185234 | 56 | 38 | 7.0 | 18.0 | 0.00 | 0.00 | 0.00 | 85 | 1006.7 |
| 20260505185052 | 56 | 39 | 9.0 | 19.0 | 0.00 | 0.00 | 0.00 | 84 | 1006.7 |
| 20260505185040 | 56 | 23 | 7.0 | 19.0 | 0.00 | 0.00 | 0.00 | 84 | 1006.5 |
| 20260505184321 | 56 | 5 | 14.0 | 20.0 | 0.00 | 0.00 | 0.00 | 84 | 1006.6 |
| 20260505183842 | 56 | 73 | 4.0 | 21.0 | 0.00 | 0.00 | 0.00 | 85 | 1006.6 |
| 20260505183822 | 56 | 52 | 4.0 | 21.0 | 0.00 | 0.00 | 0.00 | 85 | 1006.6 |
| 20260505183343 | 55 | 55 | 12.0 | 21.0 | 0.00 | 0.00 | 0.00 | 85 | 1006.4 |
| 20260505183321 | 55 | 44 | 6.0 | 21.0 | 0.00 | 0.00 | 0.00 | 85 | 1006.3 |
| 20260505182842 | 55 | 59 | 10.0 | 22.0 | 0.00 | 0.00 | 0.00 | 85 | 1006.4 |
| 20260505182827 | 55 | 55 | 5.0 | 22.0 | 0.00 | 0.00 | 0.00 | 85 | 1006.4 |
| 20260505182341 | 55 | 54 | 9.0 | 22.0 | 0.00 | 0.00 | 0.00 | 85 | 1006.4 |
| 20260505182322 | 55 | 61 | 8.0 | 22.0 | 0.00 | 0.00 | 0.00 | 85 | 1006.5 |
| 20260505181856 | 56 | 109 | 9.0 | 17.0 | 0.00 | 0.00 | 0.00 | 85 | 1006.2 |
| 20260505181843 | 56 | 51 | 9.0 | 17.0 | 0.00 | 0.00 | 0.00 | 85 | 1006.2 |
| 20260505181523 | 56 | 83 | 7.0 | 23.0 | 0.00 | 0.00 | 0.00 | 85 | 1006.1 |
| 20260505181512 | 56 | 50 | 12.0 | 28.0 | 0.00 | 0.00 | 0.00 | 86 | 1006.0 |
| 20260505181433 | 56 | 36 | 4.0 | 28.0 | 0.00 | 0.00 | 0.00 | 85 | 1006.1 |
| 20260505181418 | 56 | 84 | 7.0 | 28.0 | 0.00 | 0.00 | 0.00 | 85 | 1006.0 |
| 20260505181221 | 56 | 91 | 6.0 | 28.0 | 0.00 | 0.00 | 0.00 | 86 | 1005.9 |
| 20260505180542 | 56 | 43 | 15.0 | 23.0 | 0.00 | 0.00 | 0.00 | 85 | 1006.0 |
| 20260505180222 | 56 | 56 | 9.0 | 23.0 | 0.00 | 0.00 | 0.00 | 86 | 1006.0 |
| 20260505175821 | 56 | 62 | 9.0 | 23.0 | 0.00 | 0.00 | 0.00 | 86 | 1006.0 |
| 20260505175707 | 56 | 25 | 6.0 | 20.0 | 0.00 | 0.00 | 0.00 | 86 | 1005.9 |
| 20260505175541 | 56 | 63 | 13.0 | 20.0 | 0.00 | 0.00 | 0.00 | 85 | 1006.0 |
| 20260505174841 | 56 | 81 | 4.0 | 27.0 | 0.00 | 0.00 | 0.00 | 86 | 1006.0 |
| 20260505174826 | 56 | 53 | 8.0 | 27.0 | 0.00 | 0.00 | 0.00 | 86 | 1005.9 |
| 20260505174341 | 56 | 91 | 7.0 | 27.0 | 0.00 | 0.00 | 0.00 | 86 | 1006.0 |
| 20260505174320 | 56 | 44 | 16.0 | 27.0 | 0.00 | 0.00 | 0.00 | 85 | 1005.9 |
| 20260505174200 | 56 | 66 | 13.0 | 25.0 | 0.00 | 0.00 | 0.00 | 86 | 1005.9 |
| 20260505174044 | 56 | 68 | 9.0 | 25.0 | 0.00 | 0.00 | 0.00 | 86 | 1005.8 |
| 20260505173340 | 56 | 55 | 7.0 | 21.0 | 0.00 | 0.00 | 0.00 | 86 | 1005.9 |
| 20260505173320 | 56 | 85 | 8.0 | 21.0 | 0.00 | 0.00 | 0.00 | 86 | 1005.7 |
| 20260505172844 | 56 | 26 | 4.0 | 18.0 | 0.00 | 0.00 | 0.00 | 86 | 1005.6 |
| 20260505172820 | 56 | 91 | 5.0 | 18.0 | 0.00 | 0.00 | 0.00 | 87 | 1005.7 |
| 20260505172341 | 56 | 349 | 11.0 | 23.0 | 0.00 | 0.00 | 0.00 | 86 | 1005.7 |
| 20260505172323 | 56 | 2 | 4.0 | 23.0 | 0.00 | 0.00 | 0.00 | 87 | 1005.9 |
| 20260505172232 | 56 | 50 | 7.0 | 23.0 | 0.00 | 0.00 | 0.00 | 87 | 1005.7 |
| 20260505171823 | 56 | 32 | 11.0 | 23.0 | 0.00 | 0.00 | 0.00 | 86 | 1005.6 |
| 20260505171341 | 57 | 86 | 6.0 | 23.0 | 0.00 | 0.00 | 0.00 | 86 | 1005.3 |
| 20260505171320 | 57 | 116 | 4.0 | 23.0 | 0.00 | 0.00 | 0.00 | 86 | 1005.4 |
| 20260505170841 | 57 | 63 | 6.0 | 28.0 | 0.00 | 0.00 | 0.00 | 86 | 1005.2 |
| 20260505170821 | 57 | 37 | 14.0 | 28.0 | 0.00 | 0.00 | 0.00 | 86 | 1005.2 |
| 20260505170736 | 57 | 48 | 14.0 | 28.0 | 0.00 | 0.00 | 0.00 | 86 | 1005.0 |
| 20260505170554 | 57 | 40 | 15.0 | 28.0 | 0.00 | 0.00 | 0.00 | 86 | 1005.0 |
| 20260505170224 | 58 | 46 | 6.0 | 26.0 | 0.00 | 0.00 | 0.00 | 86 | 1005.0 |
| 20260505170043 | 58 | 45 | 9.0 | 23.0 | 0.00 | 0.00 | 0.00 | 86 | 1004.7 |
| 20260505165341 | 58 | 71 | 6.0 | 26.0 | 0.00 | 0.00 | 0.00 | 86 | 1004.8 |
| 20260505165322 | 58 | 55 | 14.0 | 26.0 | 0.00 | 0.00 | 0.00 | 86 | 1004.7 |
| 20260505165230 | 58 | 38 | 17.0 | 22.0 | 0.00 | 0.00 | 0.00 | 86 | 1005.0 |
| 20260505165041 | 58 | 52 | 12.0 | 26.0 | 0.00 | 0.00 | 0.00 | 86 | 1005.0 |
| 20260505164342 | 59 | 55 | 5.0 | 23.0 | 0.00 | 0.00 | 0.00 | 86 | 1004.8 |
| 20260505164322 | 59 | 66 | 6.0 | 23.0 | 0.00 | 0.00 | 0.00 | 86 | 1004.6 |
| 20260505163840 | 60 | 70 | 7.0 | 23.0 | 0.00 | 0.00 | 0.00 | 86 | 1004.5 |
| 20260505163820 | 60 | 62 | 6.0 | 23.0 | 0.00 | 0.00 | 0.00 | 86 | 1004.5 |
| 20260505163342 | 61 | 4 | 9.0 | 20.0 | 0.00 | 0.00 | 0.00 | 86 | 1004.0 |
| 20260505163322 | 61 | 3 | 9.0 | 20.0 | 0.00 | 0.00 | 0.00 | 85 | 1004.1 |
| 20260505162842 | 62 | 70 | 9.0 | 22.0 | 0.00 | 0.00 | 0.00 | 86 | 1004.0 |
| 20260505162821 | 62 | 60 | 8.0 | 22.0 | 0.00 | 0.00 | 0.00 | 86 | 1003.9 |
| 20260505162340 | 62 | 53 | 6.0 | 22.0 | 0.00 | 0.00 | 0.00 | 86 | 1003.8 |
| 20260505162321 | 62 | 22 | 10.0 | 22.0 | 0.00 | 0.00 | 0.00 | 86 | 1003.8 |
| 20260505162233 | 63 | 43 | 11.0 | 22.0 | 0.00 | 0.00 | 0.00 | 85 | 1003.6 |
| 20260505161824 | 63 | 56 | 15.0 | 22.0 | 0.00 | 0.00 | 0.00 | 85 | 1003.6 |
| 20260505161340 | 64 | 334 | 10.0 | 22.0 | 0.00 | 0.00 | 0.00 | 85 | 1003.2 |
| 20260505161322 | 64 | 10 | 12.0 | 22.0 | 0.00 | 0.00 | 0.00 | 85 | 1002.9 |
| 20260505161223 | 65 | 77 | 6.0 | 25.0 | 0.00 | 0.00 | 0.00 | 85 | 1002.7 |
| 20260505160821 | 65 | 62 | 7.0 | 25.0 | 0.00 | 0.00 | 0.00 | 85 | 1002.6 |
| 20260505160632 | 68 | 65 | 9.0 | 23.0 | 0.00 | 0.00 | 0.00 | 85 | 1002.7 |
| 20260505160515 | 66 | 36 | 12.0 | 25.0 | 0.00 | 0.00 | 0.00 | 85 | 1002.7 |
| 20260505160503 | 66 | 62 | 15.0 | 25.0 | 0.00 | 0.00 | 0.00 | 85 | 1002.6 |
| 20260505153338 | 70 | 49 | 6.0 | 12.0 | 0.00 | 0.00 | 0.00 | 85 | 1002.4 |
| 20260505153316 | 70 | 84 | 5.0 | 12.0 | 0.00 | 0.00 | 0.00 | 85 | 1002.4 |
| 20260505152845 | 71 | 62 | 5.0 | 12.0 | 0.00 | 0.00 | 0.00 | 84 | 1002.4 |
| 20260505152829 | 71 | 30 | 2.0 | 12.0 | 0.00 | 0.00 | 0.00 | 85 | 1002.3 |
| 20260505152335 | 71 | 101 | 5.0 | 12.0 | 0.00 | 0.00 | 0.00 | 83 | 1002.1 |
| 20260505152317 | 71 | 56 | 1.0 | 12.0 | 0.00 | 0.00 | 0.00 | 83 | 1002.1 |
| 20260505152229 | 71 | 105 | 4.0 | 10.0 | 0.00 | 0.00 | 0.00 | 83 | 1001.9 |
| 20260505151817 | 71 | 91 | 4.0 | 10.0 | 0.00 | 0.00 | 0.00 | 83 | 1001.9 |
| 20260505151342 | 71 | 35 | 6.0 | 11.0 | 0.00 | 0.00 | 0.00 | 83 | 1001.6 |
| 20260505151317 | 71 | 87 | 4.0 | 11.0 | 0.00 | 0.00 | 0.00 | 84 | 1001.6 |
| 20260505150840 | 71 | 113 | 6.0 | 11.0 | 0.00 | 0.00 | 0.00 | 83 | 1001.7 |
| 20260505150816 | 71 | 82 | 10.0 | 10.0 | 0.00 | 0.00 | 0.00 | 83 | 1001.6 |
| 20260505150338 | 72 | 35 | 6.0 | 9.0 | 0.00 | 0.00 | 0.00 | 83 | 1001.7 |
| 20260505150317 | 72 | 85 | 7.0 | 9.0 | 0.00 | 0.00 | 0.00 | 83 | 1001.5 |
| 20260505140330 | 72 | 138 | 1.0 | 5.0 | 0.00 | 0.00 | 0.00 | 80 | 1001.0 |
| 20260505140306 | 72 | 152 | 2.0 | 5.0 | 0.00 | 0.00 | 0.00 | 80 | 1001.2 |
| 20260505130305 | 68 | 99 | 2.0 | 2.0 | 0.00 | 0.00 | 0.00 | 88 | 1000.8 |
| 20260505130205 | 68 | 15 | 0.0 | 2.0 | 0.00 | 0.00 | 0.00 | 88 | 1000.9 |
| 20260505124830 | 68 | 192 | 2.0 | 2.0 | 0.00 | 0.00 | 0.00 | 87 | 1000.8 |
| 20260505124805 | 68 | 192 | 2.0 | 2.0 | 0.00 | 0.00 | 0.00 | 87 | 1000.6 |
| 20260505124344 | 68 | 163 | 1.0 | 4.0 | 0.00 | 0.00 | 0.00 | 87 | 1000.9 |
| 20260505124332 | 68 | 122 | 0.0 | 3.0 | 0.00 | 0.00 | 0.00 | 87 | 1000.7 |
| 20260505124315 | 68 | 98 | 2.0 | 4.0 | 0.00 | 0.00 | 0.00 | 87 | 1000.8 |
| 20260505123806 | 68 | 178 | 2.0 | 4.0 | 0.00 | 0.00 | 0.00 | 87 | 1000.8 |
| 20260505123329 | 67 | 20 | 2.0 | 4.0 | 0.00 | 0.00 | 0.00 | 86 | 1000.7 |
| 20260505123305 | 67 | 71 | 3.0 | 4.0 | 0.00 | 0.00 | 0.00 | 87 | 1000.7 |
| 20260505123219 | 68 | 129 | 1.0 | 4.0 | 0.00 | 0.00 | 0.00 | 86 | 1000.6 |
| 20260505122806 | 68 | 131 | 2.0 | 4.0 | 0.00 | 0.00 | 0.00 | 86 | 1000.5 |
| 20260505122330 | 68 | 222 | 1.0 | 5.0 | 0.00 | 0.00 | 0.00 | 85 | 1000.6 |
| 20260505122306 | 68 | 157 | 0.0 | 5.0 | 0.00 | 0.00 | 0.00 | 85 | 1000.5 |
| 20260505122112 | 68 | 17 | 1.0 | 3.0 | 0.00 | 0.00 | 0.00 | 85 | 1000.5 |
| 20260505122104 | 68 | 68 | 1.0 | 3.0 | 0.00 | 0.00 | 0.00 | 85 | 1000.4 |
| 20260505121952 | 68 | 110 | 3.0 | 5.0 | 0.00 | 0.00 | 0.00 | 85 | 1000.4 |
| 20260505121936 | 68 | 108 | 2.0 | 5.0 | 0.00 | 0.00 | 0.00 | 85 | 1000.7 |
| 20260505120829 | 68 | 48 | 1.0 | 3.0 | 0.00 | 0.00 | 0.00 | 84 | 1000.2 |
| 20260505120806 | 68 | 88 | 2.0 | 3.0 | 0.00 | 0.00 | 0.00 | 84 | 1000.2 |
| 20260505120726 | 68 | 93 | 2.0 | 4.0 | 0.00 | 0.00 | 0.00 | 83 | 1000.2 |
| 20260505120305 | 68 | 97 | 2.0 | 5.0 | 0.00 | 0.00 | 0.00 | 83 | 1000.2 |
| 20260505115830 | 69 | 113 | 0.0 | 9.0 | 0.00 | 0.00 | 0.00 | 82 | 999.9 |
| 20260505115806 | 69 | 163 | 1.0 | 9.0 | 0.00 | 0.00 | 0.00 | 82 | 999.9 |
| 20260505115721 | 69 | 194 | 3.0 | 9.0 | 0.00 | 0.00 | 0.00 | 82 | 999.7 |
| 20260505115306 | 69 | 239 | 3.0 | 9.0 | 0.00 | 0.00 | 0.00 | 82 | 999.6 |
| 20260505115219 | 69 | 236 | 2.0 | 9.0 | 0.00 | 0.00 | 0.00 | 82 | 999.5 |
| 20260505114806 | 69 | 276 | 4.0 | 9.0 | 0.00 | 0.00 | 0.00 | 82 | 999.4 |
| 20260505114341 | 69 | 226 | 2.0 | 10.0 | 0.00 | 0.00 | 0.00 | 82 | 999.3 |
| 20260505114329 | 69 | 261 | 2.0 | 10.0 | 0.00 | 0.00 | 0.00 | 82 | 999.5 |
| 20260505114313 | 69 | 226 | 5.0 | 10.0 | 0.00 | 0.00 | 0.00 | 82 | 999.4 |
| 20260505113807 | 69 | 231 | 2.0 | 10.0 | 0.00 | 0.00 | 0.00 | 82 | 999.4 |
| 20260505113329 | 69 | 284 | 1.0 | 10.0 | 0.00 | 0.00 | 0.00 | 82 | 999.1 |
| 20260505113307 | 69 | 203 | 3.0 | 10.0 | 0.00 | 0.00 | 0.00 | 82 | 999.0 |
| 20260505112829 | 69 | 239 | 6.0 | 10.0 | 0.00 | 0.00 | 0.00 | 81 | 999.0 |
| 20260505112805 | 69 | 252 | 5.0 | 10.0 | 0.00 | 0.00 | 0.00 | 81 | 999.0 |
| 20260505112330 | 69 | 268 | 4.0 | 12.0 | 0.00 | 0.00 | 0.00 | 81 | 998.8 |
| 20260505112305 | 69 | 200 | 2.0 | 12.0 | 0.00 | 0.00 | 0.00 | 81 | 999.0 |
| 20260505111829 | 69 | 263 | 6.0 | 12.0 | 0.00 | 0.00 | 0.00 | 81 | 999.0 |
| 20260505111807 | 69 | 246 | 5.0 | 12.0 | 0.00 | 0.00 | 0.00 | 81 | 998.9 |
| 20260505111328 | 70 | 257 | 6.0 | 13.0 | 0.00 | 0.00 | 0.00 | 81 | 998.7 |
| 20260505111306 | 70 | 247 | 6.0 | 13.0 | 0.00 | 0.00 | 0.00 | 81 | 998.7 |
| 20260505110835 | 70 | 239 | 5.0 | 15.0 | 0.00 | 0.00 | 0.00 | 80 | 998.8 |
| 20260505110820 | 70 | 240 | 2.0 | 15.0 | 0.00 | 0.00 | 0.00 | 80 | 998.7 |
| 20260505110338 | 70 | 248 | 6.0 | 16.0 | 0.00 | 0.00 | 0.00 | 80 | 998.7 |
| 20260505110321 | 70 | 256 | 6.0 | 16.0 | 0.00 | 0.00 | 0.00 | 80 | 998.5 |
| 20260505101835 | 71 | 249 | 9.0 | 19.0 | 0.00 | 0.00 | 0.00 | 79 | 998.4 |
| 20260505101806 | 71 | 228 | 11.0 | 19.0 | 0.00 | 0.00 | 0.00 | 79 | 998.4 |
| 20260505101704 | 71 | 201 | 8.0 | 19.0 | 0.00 | 0.00 | 0.00 | 79 | 998.4 |
| 20260505101538 | 71 | 206 | 7.0 | 19.0 | 0.00 | 0.00 | 0.00 | 79 | 998.2 |
| 20260505100859 | 71 | 210 | 9.0 | 19.0 | 0.00 | 0.00 | 0.00 | 78 | 998.5 |
| 20260505100808 | 71 | 244 | 10.0 | 19.0 | 0.00 | 0.00 | 0.00 | 78 | 998.5 |
| 20260505100333 | 71 | 213 | 14.0 | 19.0 | 0.00 | 0.00 | 0.00 | 78 | 998.3 |
| 20260505100307 | 71 | 233 | 12.0 | 19.0 | 0.00 | 0.00 | 0.00 | 79 | 998.4 |
| 20260505100240 | 71 | 214 | 7.0 | 21.0 | 0.00 | 0.00 | 0.00 | 78 | 998.5 |
| 20260505100042 | 71 | 238 | 9.0 | 21.0 | 0.00 | 0.00 | 0.00 | 78 | 998.3 |
| 20260505095331 | 71 | 245 | 6.0 | 21.0 | 0.00 | 0.00 | 0.00 | 78 | 998.6 |
| 20260505095306 | 71 | 249 | 6.0 | 21.0 | 0.00 | 0.00 | 0.00 | 78 | 998.5 |
| 20260505094831 | 71 | 242 | 9.0 | 19.0 | 0.00 | 0.00 | 0.00 | 78 | 998.4 |
| 20260505094806 | 71 | 240 | 7.0 | 19.0 | 0.00 | 0.00 | 0.00 | 78 | 998.4 |
| 20260505094333 | 71 | 195 | 18.0 | 19.0 | 0.00 | 0.00 | 0.00 | 78 | 998.5 |
| 20260505094311 | 71 | 237 | 9.0 | 19.0 | 0.00 | 0.00 | 0.00 | 78 | 998.4 |
| 20260505093856 | 71 | 225 | 8.0 | 19.0 | 0.00 | 0.00 | 0.00 | 79 | 998.6 |
| 20260505093808 | 71 | 275 | 4.0 | 19.0 | 0.00 | 0.00 | 0.00 | 79 | 998.3 |
| 20260505093714 | 71 | 251 | 7.0 | 18.0 | 0.00 | 0.00 | 0.00 | 79 | 998.3 |
| 20260505093306 | 71 | 222 | 9.0 | 18.0 | 0.00 | 0.00 | 0.00 | 79 | 998.4 |
| 20260505092831 | 71 | 215 | 8.0 | 16.0 | 0.00 | 0.00 | 0.00 | 79 | 998.3 |
| 20260505092806 | 71 | 236 | 9.0 | 16.0 | 0.00 | 0.00 | 0.00 | 79 | 998.4 |
| 20260505092332 | 71 | 252 | 8.0 | 16.0 | 0.00 | 0.00 | 0.00 | 79 | 998.2 |
| 20260505092306 | 71 | 207 | 8.0 | 16.0 | 0.00 | 0.00 | 0.00 | 79 | 998.4 |
| 20260505092218 | 71 | 240 | 8.0 | 15.0 | 0.00 | 0.00 | 0.00 | 79 | 998.5 |
| 20260505091807 | 71 | 215 | 10.0 | 16.0 | 0.00 | 0.00 | 0.00 | 79 | 998.4 |
| 20260505091653 | 71 | 247 | 7.0 | 16.0 | 0.00 | 0.00 | 0.00 | 79 | 998.5 |
| 20260505091532 | 71 | 253 | 8.0 | 16.0 | 0.00 | 0.00 | 0.00 | 79 | 998.4 |
| 20260505090854 | 71 | 212 | 10.0 | 19.0 | 0.00 | 0.00 | 0.00 | 78 | 998.6 |
| 20260505090806 | 71 | 197 | 15.0 | 19.0 | 0.00 | 0.00 | 0.00 | 78 | 998.6 |
| 20260505090332 | 71 | 234 | 10.0 | 19.0 | 0.00 | 0.00 | 0.00 | 78 | 998.6 |
| 20260505090306 | 71 | 250 | 9.0 | 19.0 | 0.00 | 0.00 | 0.00 | 78 | 998.7 |
| 20260505090154 | 71 | 219 | 3.0 | 18.0 | 0.00 | 0.00 | 0.00 | 78 | 998.6 |
| 20260505090032 | 71 | 222 | 13.0 | 18.0 | 0.00 | 0.00 | 0.00 | 78 | 998.7 |
| 20260505085331 | 71 | 226 | 7.0 | 19.0 | 0.00 | 0.00 | 0.00 | 78 | 998.8 |
| 20260505085306 | 71 | 244 | 10.0 | 19.0 | 0.00 | 0.00 | 0.00 | 78 | 998.6 |
| 20260505084832 | 71 | 230 | 9.0 | 19.0 | 0.00 | 0.00 | 0.00 | 78 | 998.7 |
| 20260505084806 | 71 | 248 | 6.0 | 19.0 | 0.00 | 0.00 | 0.00 | 78 | 998.5 |
| 20260505084727 | 71 | 255 | 10.0 | 16.0 | 0.00 | 0.00 | 0.00 | 78 | 998.6 |
| 20260505084305 | 71 | 190 | 5.0 | 16.0 | 0.00 | 0.00 | 0.00 | 78 | 998.6 |
| 20260505084140 | 71 | 228 | 9.0 | 17.0 | 0.00 | 0.00 | 0.00 | 78 | 998.9 |
| 20260505084128 | 71 | 223 | 14.0 | 19.0 | 0.00 | 0.00 | 0.00 | 78 | 998.8 |
| 20260505084011 | 71 | 240 | 12.0 | 19.0 | 0.00 | 0.00 | 0.00 | 78 | 998.7 |
| 20260505083954 | 71 | 243 | 7.0 | 19.0 | 0.00 | 0.00 | 0.00 | 78 | 998.7 |
| 20260505083500 | 71 | 229 | 11.0 | 19.0 | 0.00 | 0.00 | 0.00 | 78 | 998.7 |
| 20260505082806 | 71 | 255 | 10.0 | 17.0 | 0.00 | 0.00 | 0.00 | 78 | 999.0 |
| 20260505082728 | 71 | 219 | 12.0 | 17.0 | 0.00 | 0.00 | 0.00 | 78 | 999.1 |
| 20260505082305 | 71 | 223 | 7.0 | 17.0 | 0.00 | 0.00 | 0.00 | 78 | 999.0 |
| 20260505081833 | 71 | 221 | 7.0 | 15.0 | 0.00 | 0.00 | 0.00 | 79 | 999.0 |
| 20260505081808 | 71 | 237 | 6.0 | 15.0 | 0.00 | 0.00 | 0.00 | 78 | 999.1 |
| 20260505081332 | 71 | 211 | 3.0 | 15.0 | 0.00 | 0.00 | 0.00 | 78 | 999.1 |
| 20260505081308 | 71 | 256 | 8.0 | 15.0 | 0.00 | 0.00 | 0.00 | 79 | 998.9 |
| 20260505080832 | 71 | 262 | 2.0 | 21.0 | 0.00 | 0.00 | 0.00 | 79 | 998.9 |
| 20260505080810 | 71 | 212 | 9.0 | 21.0 | 0.00 | 0.00 | 0.00 | 79 | 999.1 |
| 20260505080800 | 71 | 213 | 6.0 | 21.0 | 0.00 | 0.00 | 0.00 | 79 | 999.0 |
| 20260505080601 | 71 | 196 | 6.0 | 21.0 | 0.00 | 0.00 | 0.00 | 79 | 999.1 |
| 20260505080115 | 71 | 255 | 11.0 | 21.0 | 0.00 | 0.00 | 0.00 | 78 | 999.1 |
| 20260505080054 | 71 | 238 | 9.0 | 21.0 | 0.00 | 0.00 | 0.00 | 78 | 999.4 |
| 20260505075948 | 71 | 217 | 10.0 | 18.0 | 0.00 | 0.00 | 0.00 | 78 | 999.3 |
| 20260505075926 | 71 | 214 | 4.0 | 18.0 | 0.00 | 0.00 | 0.00 | 78 | 999.3 |
| 20260505075505 | 71 | 246 | 6.0 | 21.0 | 0.00 | 0.00 | 0.00 | 78 | 999.0 |
| 20260505075446 | 71 | 190 | 4.0 | 21.0 | 0.00 | 0.00 | 0.00 | 78 | 999.1 |
| 20260505074334 | 71 | 212 | 12.0 | 21.0 | 0.00 | 0.00 | 0.00 | 78 | 999.1 |
| 20260505074306 | 71 | 221 | 13.0 | 21.0 | 0.00 | 0.00 | 0.00 | 78 | 999.3 |
| 20260505073834 | 71 | 250 | 9.0 | 20.0 | 0.00 | 0.00 | 0.00 | 78 | 999.4 |
| 20260505073807 | 71 | 228 | 9.0 | 20.0 | 0.00 | 0.00 | 0.00 | 78 | 999.3 |
| 20260505073724 | 71 | 235 | 9.0 | 19.0 | 0.00 | 0.00 | 0.00 | 78 | 999.4 |
| 20260505073715 | 71 | 205 | 15.0 | 19.0 | 0.00 | 0.00 | 0.00 | 79 | 999.7 |
| 20260505073532 | 71 | 223 | 7.0 | 20.0 | 0.00 | 0.00 | 0.00 | 78 | 999.3 |
| 20260505073512 | 71 | 256 | 14.0 | 20.0 | 0.00 | 0.00 | 0.00 | 78 | 999.4 |
| 20260505072332 | 71 | 219 | 15.0 | 21.0 | 0.00 | 0.00 | 0.00 | 78 | 999.6 |
| 20260505072308 | 71 | 252 | 9.0 | 21.0 | 0.00 | 0.00 | 0.00 | 78 | 999.6 |
| 20260505072237 | 71 | 181 | 12.0 | 26.0 | 0.00 | 0.00 | 0.00 | 78 | 999.5 |
| 20260505071807 | 71 | 233 | 13.0 | 26.0 | 0.00 | 0.00 | 0.00 | 78 | 999.7 |
| 20260505071736 | 71 | 251 | 11.0 | 26.0 | 0.00 | 0.00 | 0.00 | 78 | 999.7 |
| 20260505071305 | 71 | 199 | 8.0 | 26.0 | 0.00 | 0.00 | 0.00 | 78 | 999.7 |
| 20260505070848 | 71 | 195 | 12.0 | 19.0 | 0.00 | 0.00 | 0.00 | 78 | 999.9 |
| 20260505070832 | 71 | 257 | 11.0 | 20.0 | 0.00 | 0.00 | 0.00 | 78 | 999.8 |
| 20260505070811 | 71 | 259 | 12.0 | 20.0 | 0.00 | 0.00 | 0.00 | 79 | 999.7 |
| 20260505070336 | 71 | 205 | 12.0 | 20.0 | 0.00 | 0.00 | 0.00 | 78 | 999.8 |
| 20260505070319 | 71 | 216 | 11.0 | 20.0 | 0.00 | 0.00 | 0.00 | 78 | 999.8 |
| 20260505065805 | 71 | 208 | 8.0 | 19.0 | 0.00 | 0.00 | 0.00 | 78 | 999.9 |
| 20260505065726 | 71 | 214 | 8.0 | 18.0 | 0.00 | 0.00 | 0.00 | 79 | 999.9 |
| 20260505065306 | 71 | 223 | 7.0 | 18.0 | 0.00 | 0.00 | 0.00 | 79 | 999.8 |
| 20260505065212 | 71 | 233 | 4.0 | 23.0 | 0.00 | 0.00 | 0.00 | 79 | 1000.0 |
| 20260505065032 | 71 | 213 | 3.0 | 23.0 | 0.00 | 0.00 | 0.00 | 79 | 999.9 |
| 20260505064340 | 71 | 194 | 8.0 | 23.0 | 0.00 | 0.00 | 0.00 | 78 | 999.9 |
| 20260505064308 | 71 | 200 | 18.0 | 23.0 | 0.00 | 0.00 | 0.00 | 78 | 999.9 |
| 20260505063834 | 71 | 212 | 7.0 | 23.0 | 0.00 | 0.00 | 0.00 | 78 | 999.9 |
| 20260505063806 | 71 | 247 | 4.0 | 23.0 | 0.00 | 0.00 | 0.00 | 78 | 999.9 |
| 20260505063553 | 71 | 241 | 12.0 | 24.0 | 0.00 | 0.00 | 0.00 | 78 | 1000.1 |
| 20260505063548 | 71 | 218 | 8.0 | 24.0 | 0.00 | 0.00 | 0.00 | 78 | 1000.2 |
| 20260505063440 | 71 | 192 | 10.0 | 23.0 | 0.00 | 0.00 | 0.00 | 78 | 999.8 |
| 20260505063424 | 71 | 188 | 9.0 | 23.0 | 0.00 | 0.00 | 0.00 | 78 | 1000.0 |
| 20260505063228 | 71 | 239 | 8.0 | 24.0 | 0.00 | 0.00 | 0.00 | 78 | 1000.1 |
| 20260505062426 | 71 | 213 | 5.0 | 24.0 | 0.00 | 0.00 | 0.00 | 78 | 1000.2 |
| 20260505061838 | 71 | 201 | 11.0 | 24.0 | 0.00 | 0.00 | 0.00 | 78 | 1000.2 |
| 20260505061806 | 71 | 233 | 16.0 | 24.0 | 0.00 | 0.00 | 0.00 | 78 | 1000.2 |
| 20260505061333 | 71 | 205 | 15.0 | 25.0 | 0.00 | 0.00 | 0.00 | 78 | 1000.1 |
| 20260505061306 | 71 | 219 | 15.0 | 25.0 | 0.00 | 0.00 | 0.00 | 78 | 1000.2 |
| 20260505060832 | 71 | 235 | 16.0 | 25.0 | 0.00 | 0.00 | 0.00 | 77 | 1000.3 |
| 20260505060807 | 71 | 205 | 22.0 | 25.0 | 0.00 | 0.00 | 0.00 | 78 | 1000.3 |
| 20260505060332 | 71 | 228 | 13.0 | 23.0 | 0.00 | 0.00 | 0.00 | 77 | 1000.5 |
| 20260505060308 | 71 | 218 | 8.0 | 23.0 | 0.00 | 0.00 | 0.00 | 77 | 1000.5 |
| 20260505060253 | 71 | 241 | 11.0 | 23.0 | 0.00 | 0.00 | 0.00 | 77 | 1000.6 |
| 20260505060108 | 71 | 216 | 11.0 | 23.0 | 0.00 | 0.00 | 0.00 | 77 | 1000.4 |
| 20260505055333 | 71 | 196 | 9.0 | 21.0 | 0.00 | 0.00 | 0.00 | 78 | 1000.6 |
| 20260505055307 | 71 | 221 | 15.0 | 21.0 | 0.00 | 0.00 | 0.00 | 78 | 1000.5 |
| 20260505054832 | 71 | 211 | 10.0 | 21.0 | 0.00 | 0.00 | 0.00 | 77 | 1000.5 |
| 20260505054806 | 71 | 174 | 10.0 | 21.0 | 0.00 | 0.00 | 0.00 | 77 | 1000.3 |
| 20260505054332 | 71 | 206 | 13.0 | 21.0 | 0.00 | 0.00 | 0.00 | 77 | 1000.6 |
| 20260505054306 | 71 | 197 | 15.0 | 21.0 | 0.00 | 0.00 | 0.00 | 77 | 1000.5 |
| 20260505054213 | 71 | 239 | 7.0 | 22.0 | 0.00 | 0.00 | 0.00 | 77 | 1000.4 |
| 20260505053806 | 71 | 225 | 14.0 | 22.0 | 0.00 | 0.00 | 0.00 | 77 | 1000.5 |
| 20260505053333 | 71 | 225 | 3.0 | 23.0 | 0.00 | 0.00 | 0.00 | 77 | 1000.6 |
| 20260505053305 | 71 | 190 | 4.0 | 23.0 | 0.00 | 0.00 | 0.00 | 77 | 1000.6 |
| 20260505052834 | 71 | 216 | 9.0 | 23.0 | 0.00 | 0.00 | 0.00 | 77 | 1000.6 |
| 20260505052806 | 71 | 224 | 11.0 | 23.0 | 0.00 | 0.00 | 0.00 | 77 | 1000.6 |
| 20260505052716 | 71 | 222 | 14.0 | 23.0 | 0.00 | 0.00 | 0.00 | 77 | 1000.7 |
| 20260505052306 | 71 | 198 | 8.0 | 23.0 | 0.00 | 0.00 | 0.00 | 77 | 1000.5 |
| 20260505051832 | 71 | 218 | 14.0 | 23.0 | 0.00 | 0.00 | 0.00 | 77 | 1000.6 |
| 20260505051806 | 71 | 188 | 4.0 | 23.0 | 0.00 | 0.00 | 0.00 | 77 | 1000.7 |
| 20260505051333 | 71 | 227 | 13.0 | 23.0 | 0.00 | 0.00 | 0.00 | 77 | 1000.7 |
| 20260505051306 | 71 | 197 | 10.0 | 23.0 | 0.00 | 0.00 | 0.00 | 77 | 1000.7 |
| 20260505050833 | 71 | 192 | 10.0 | 19.0 | 0.00 | 0.00 | 0.00 | 77 | 1000.9 |
| 20260505050808 | 71 | 226 | 11.0 | 19.0 | 0.00 | 0.00 | 0.00 | 77 | 1000.8 |
| 20260505050727 | 71 | 202 | 8.0 | 18.0 | 0.00 | 0.00 | 0.00 | 77 | 1000.8 |
| 20260505050322 | 71 | 199 | 10.0 | 18.0 | 0.00 | 0.00 | 0.00 | 77 | 1000.7 |
| 20260505041308 | 72 | 206 | 9.0 | 22.0 | 0.00 | 0.00 | 0.00 | 75 | 1001.0 |
| 20260505040808 | 72 | 192 | 9.0 | 25.0 | 0.00 | 0.00 | 0.00 | 74 | 1000.9 |
| 20260505040307 | 72 | 213 | 16.0 | 25.0 | 0.00 | 0.00 | 0.00 | 74 | 1001.2 |
| 20260505035837 | 72 | 190 | 4.0 | 23.0 | 0.00 | 0.00 | 0.00 | 74 | 1001.4 |
| 20260505035307 | 72 | 238 | 10.0 | 28.0 | 0.00 | 0.00 | 0.00 | 74 | 1001.1 |
| 20260505034806 | 73 | 211 | 12.0 | 28.0 | 0.00 | 0.00 | 0.00 | 73 | 1001.0 |
| 20260505034248 | 73 | 208 | 16.0 | 35.0 | 0.00 | 0.00 | 0.00 | 73 | 1001.0 |
| 20260505033743 | 73 | 218 | 12.0 | 35.0 | 0.00 | 0.00 | 0.00 | 73 | 1001.0 |
| 20260505033256 | 73 | 187 | 9.0 | 25.0 | 0.00 | 0.00 | 0.00 | 73 | 1001.0 |
| 20260505033234 | 73 | 226 | 3.0 | 28.0 | 0.00 | 0.00 | 0.00 | 73 | 1001.0 |
| 20260505033016 | 73 | 187 | 9.0 | 25.0 | 0.00 | 0.00 | 0.00 | 73 | 1001.0 |
| 20260505032636 | 73 | 206 | 12.0 | 25.0 | 0.00 | 0.00 | 0.00 | 73 | 1000.9 |
| 20260505032234 | 73 | 206 | 12.0 | 25.0 | 0.00 | 0.00 | 0.00 | 73 | 1000.9 |
| 20260505031736 | 73 | 207 | 17.0 | 21.0 | 0.00 | 0.00 | 0.00 | 73 | 1001.0 |
| 20260505031638 | 73 | 219 | 10.0 | 24.0 | 0.00 | 0.00 | 0.00 | 72 | 1001.0 |
| 20260505031448 | 73 | 219 | 10.0 | 24.0 | 0.00 | 0.00 | 0.00 | 72 | 1001.0 |
| 20260505030735 | 73 | 202 | 12.0 | 24.0 | 0.00 | 0.00 | 0.00 | 72 | 1000.9 |
| 20260505030631 | 73 | 233 | 6.0 | 23.0 | 0.00 | 0.00 | 0.00 | 71 | 1000.8 |
| 20260505030235 | 73 | 233 | 6.0 | 23.0 | 0.00 | 0.00 | 0.00 | 71 | 1000.8 |
| 20260505025753 | 73 | 208 | 16.0 | 29.0 | 0.00 | 0.00 | 0.00 | 71 | 1000.7 |
| 20260505025548 | 74 | 197 | 17.0 | 25.0 | 0.00 | 0.00 | 0.00 | 70 | 1000.9 |
| 20260505025412 | 74 | 219 | 10.0 | 29.0 | 0.00 | 0.00 | 0.00 | 71 | 1000.7 |
| 20260505024635 | 74 | 240 | 8.0 | 24.0 | 0.00 | 0.00 | 0.00 | 70 | 1001.0 |
| 20260505024237 | 74 | 240 | 8.0 | 24.0 | 0.00 | 0.00 | 0.00 | 70 | 1001.0 |
| 20260505023739 | 74 | 204 | 15.0 | 24.0 | 0.00 | 0.00 | 0.00 | 69 | 1000.9 |
| 20260505023634 | 74 | 205 | 14.0 | 22.0 | 0.00 | 0.00 | 0.00 | 69 | 1000.8 |
| 20260505023448 | 74 | 205 | 14.0 | 22.0 | 0.00 | 0.00 | 0.00 | 69 | 1000.8 |
| 20260505022744 | 74 | 199 | 11.0 | 22.0 | 0.00 | 0.00 | 0.00 | 68 | 1000.7 |
| 20260505022311 | 75 | 194 | 18.0 | 21.0 | 0.00 | 0.00 | 0.00 | 67 | 1000.8 |
| 20260505022242 | 75 | 217 | 12.0 | 23.0 | 0.00 | 0.00 | 0.00 | 68 | 1000.7 |
| 20260505021958 | 75 | 238 | 10.0 | 23.0 | 0.00 | 0.00 | 0.00 | 68 | 1000.7 |
| 20260505021446 | 75 | 194 | 18.0 | 21.0 | 0.00 | 0.00 | 0.00 | 67 | 1000.8 |
| 20260505020735 | 75 | 195 | 6.0 | 24.0 | 0.00 | 0.00 | 0.00 | 67 | 1000.7 |
| 20260505020646 | 75 | 200 | 6.0 | 24.0 | 0.00 | 0.00 | 0.00 | 67 | 1000.6 |
| 20260505020236 | 75 | 200 | 6.0 | 24.0 | 0.00 | 0.00 | 0.00 | 67 | 1000.6 |
| 20260505020227 | 75 | 203 | 24.0 | 26.0 | 0.00 | 0.00 | 0.00 | 67 | 1000.7 |
| 20260505020153 | 75 | 237 | 18.0 | 26.0 | 0.00 | 0.00 | 0.00 | 67 | 1000.6 |
| 20260505015949 | 75 | 203 | 24.0 | 26.0 | 0.00 | 0.00 | 0.00 | 67 | 1000.7 |
| 20260505015446 | 75 | 237 | 18.0 | 26.0 | 0.00 | 0.00 | 0.00 | 67 | 1000.6 |
| 20260505014735 | 75 | 218 | 14.0 | 20.0 | 0.00 | 0.00 | 0.00 | 67 | 1000.7 |
| 20260505014241 | 76 | 209 | 12.0 | 26.0 | 0.00 | 0.00 | 0.00 | 66 | 1000.7 |
| 20260505014142 | 76 | 229 | 10.0 | 26.0 | 0.00 | 0.00 | 0.00 | 66 | 1000.6 |
| 20260505013952 | 76 | 229 | 10.0 | 26.0 | 0.00 | 0.00 | 0.00 | 66 | 1000.6 |
| 20260505013235 | 76 | 229 | 6.0 | 25.0 | 0.00 | 0.00 | 0.00 | 66 | 1000.6 |
| 20260505013146 | 76 | 208 | 11.0 | 27.0 | 0.00 | 0.00 | 0.00 | 66 | 1000.7 |
| 20260505013140 | 76 | 201 | 12.0 | 27.0 | 0.00 | 0.00 | 0.00 | 66 | 1000.7 |
| 20260505012737 | 76 | 208 | 11.0 | 27.0 | 0.00 | 0.00 | 0.00 | 66 | 1000.7 |
| 20260505012446 | 76 | 201 | 12.0 | 27.0 | 0.00 | 0.00 | 0.00 | 66 | 1000.7 |
| 20260505011735 | 76 | 231 | 5.0 | 23.0 | 0.00 | 0.00 | 0.00 | 66 | 1001.0 |
| 20260505011236 | 76 | 204 | 11.0 | 24.0 | 0.00 | 0.00 | 0.00 | 65 | 1001.1 |
| 20260505010734 | 76 | 224 | 12.0 | 24.0 | 0.00 | 0.00 | 0.00 | 65 | 1001.0 |
| 20260505010238 | 76 | 193 | 10.0 | 27.0 | 0.00 | 0.00 | 0.00 | 65 | 1000.9 |
| 20260505005805 | 77 | 210 | 14.0 | 28.0 | 0.00 | 0.00 | 0.00 | 64 | 1001.0 |
| 20260505005738 | 77 | 217 | 13.0 | 28.0 | 0.00 | 0.00 | 0.00 | 64 | 1000.8 |
| 20260505005234 | 77 | 210 | 14.0 | 28.0 | 0.00 | 0.00 | 0.00 | 64 | 1001.0 |
| 20260505004734 | 77 | 180 | 16.0 | 22.0 | 0.00 | 0.00 | 0.00 | 64 | 1001.0 |
| 20260505004638 | 77 | 207 | 19.0 | 24.0 | 0.00 | 0.00 | 0.00 | 63 | 1000.9 |
| 20260505004438 | 77 | 232 | 10.0 | 22.0 | 0.00 | 0.00 | 0.00 | 64 | 1001.0 |